Location: Deurze
(52.9838°N, 6.6090°E)
Time: 19:29:24
(UTC+00:00)

Terra - Pass Details

Date: 11 March 2026
Orbit: 687 x 692 km, 98.0° (Epoch: 20 April)

Event Time Altitude Azimuth Distance (km) Brightness Sun altitude
Exits shadow 20:03:25 38° 186° (S) 1,064 2.5 -23.1°
Maximum altitude 20:05:11 68° 257° (WSW) 748 2.0 -23.4°
Drops below altitude 10° 20:09:54 10° 341° (NNW) 2,159 4.9 -24.0°
Sets 20:12:10 0° 344° (NNW) 3,080 5.8 -24.3°
